This is the latest recevied weather packets stored in our database for station/object CE4ERM-13. If no packets are shown the sender has not sent any weather packets the latest 1 day(s).
| Time | Temp. | Humidity | Pressure | Rain* | Wind** | Luminosity | Snow |
|---|---|---|---|---|---|---|---|
| 1778091571 | 22.78° C | 57% | 1018.3 hPa | - | - | - | - |
| 1778085567 | 20.56° C | 67% | 1022.6 hPa | - | - | - | - |
| 1778082149 | 20° C | 47% | 1018.7 hPa | - | - | - | - |
| 1778075362 | 23.89° C | 45% | 1019.2 hPa | - | - | - | - |
| 1778069806 | 17.22° C | 47% | 1021.5 hPa | - | - | - | - |
| 1778068757 | 18.89° C | 47% | 1017 hPa | - | - | - | - |
| 1778068605 | 17.78° C | 47% | 1012.4 hPa | - | - | - | - |
| 1778068157 | 18.33° C | 47% | 1016.3 hPa | - | - | - | - |
| 1778068005 | 17.78° C | 47% | 1020.1 hPa | - | - | - | - |
| 1778066957 | 18.33° C | 47% | 1018.9 hPa | - | - | - | - |
| 1778066357 | 18.33° C | 47% | 1019.5 hPa | - | - | - | - |
| 1778064404 | 17.78° C | 47% | 1018.9 hPa | - | - | - | - |
| 1778063956 | 18.89° C | 47% | 1018.1 hPa | - | - | - | - |
| 1778061555 | 18.89° C | 47% | 1018.6 hPa | - | - | - | - |
| 1778060803 | 18.33° C | 43% | 1016.5 hPa | - | - | - | - |
| 1778060203 | 18.89° C | 42% | 1018.4 hPa | - | - | - | - |
| 1778059754 | 19.44° C | 47% | 1017.5 hPa | - | - | - | - |
| 1778059003 | 18.89° C | 42% | 1016.4 hPa | - | - | - | - |
| 1778057953 | 20° C | 47% | 1016.3 hPa | - | - | - | - |
| 1778057353 | 19.44° C | 48% | 1015.8 hPa | - | - | - | - |
| 1778057203 | 18.89° C | 41% | 1016.7 hPa | - | - | - | - |
| 1778056603 | 18.89° C | 41% | 1019 hPa | - | - | - | - |
| 1778056009 | 18.89° C | 41% | 1017.8 hPa | - | - | - | - |
| 1778055552 | 18.89° C | 46% | 1015.9 hPa | - | - | - | - |
| 1778055402 | 18.89° C | 41% | 1016.4 hPa | - | - | - | - |
* Rain since midnight (hover to see other rain measurements)
** Current wind speed in m/s (hover to see current wind gust speed)